| time (UTC) | temp C | wind direction | speed KPH | gust KPH | rain 1hr cm | rain 24hr cm | rain mn cm | humidity % | barometer mb |
| 20260506082320 | 24 | 195 | 1.6 | 3.2 | 0.00 | 0.00 | 0.00 | 93 | 1011.0 |
| 20260506081816 | 24 | 220 | 1.6 | 1.6 | 0.00 | 0.00 | 0.00 | 93 | 1011.0 |
| 20260506081314 | 24 | 222 | 0.0 | 0.0 | 0.00 | 0.00 | 0.00 | 93 | 1011.0 |
| 20260506080812 | 24 | 187 | 1.6 | 3.2 | 0.00 | 0.00 | 0.00 | 92 | 1010.9 |
| 20260506080308 | 24 | 225 | 1.6 | 3.2 | 0.00 | 0.00 | 0.00 | 92 | 1011.0 |
| 20260506073252 | 24 | 170 | 6.4 | 8.0 | 0.00 | 0.00 | 0.00 | 91 | 1011.3 |
| 20260506072749 | 24 | 215 | 3.2 | 3.2 | 0.00 | 0.00 | 0.00 | 91 | 1011.1 |
| 20260506072246 | 24 | 139 | 9.7 | 14.5 | 0.00 | 0.00 | 0.00 | 91 | 1011.2 |
| 20260506071744 | 24 | 174 | 6.4 | 8.0 | 0.00 | 0.00 | 0.00 | 91 | 1011.3 |
| 20260506071242 | 24 | 143 | 1.6 | 3.2 | 0.00 | 0.00 | 0.00 | 91 | 1011.6 |
| 20260506070738 | 24 | 230 | 4.8 | 8.0 | 0.00 | 0.00 | 0.00 | 91 | 1011.4 |
| 20260506070235 | 24 | 230 | 4.8 | 8.0 | 0.00 | 0.00 | 0.00 | 91 | 1011.1 |
| 20260506062212 | 24 | 215 | 3.2 | 3.2 | 0.00 | 0.00 | 0.00 | 92 | 1011.4 |
| 20260506061708 | 24 | 187 | 4.8 | 4.8 | 0.00 | 0.00 | 0.00 | 92 | 1011.4 |
| 20260506061206 | 24 | 210 | 6.4 | 8.0 | 0.00 | 0.00 | 0.00 | 92 | 1011.4 |
| 20260506060704 | 24 | 203 | 3.2 | 4.8 | 0.00 | 0.00 | 0.00 | 92 | 1011.2 |
| 20260506060201 | 24 | 161 | 12.9 | 14.5 | 0.00 | 0.00 | 0.00 | 92 | 1011.3 |
| 20260506051133 | 24 | 190 | 4.8 | 9.7 | 0.00 | 0.00 | 0.00 | 92 | 1011.2 |
| 20260506050631 | 24 | 177 | 4.8 | 4.8 | 0.00 | 0.00 | 0.00 | 93 | 1011.4 |
| 20260506050128 | 24 | 187 | 3.2 | 4.8 | 0.00 | 0.00 | 0.00 | 92 | 1011.3 |
| 20260506045121 | 24 | 201 | 3.2 | 3.2 | 0.00 | 0.00 | 0.00 | 92 | 1011.4 |
| 20260506044619 | 24 | 185 | 4.8 | 4.8 | 0.00 | 0.00 | 0.00 | 92 | 1011.4 |
| 20260506044116 | 25 | 176 | 6.4 | 9.7 | 0.00 | 0.00 | 0.00 | 92 | 1011.2 |
| 20260506043613 | 25 | 156 | 3.2 | 4.8 | 0.00 | 0.00 | 0.00 | 92 | 1011.2 |
| 20260506043111 | 25 | 199 | 3.2 | 3.2 | 0.00 | 0.00 | 0.00 | 92 | 1011.2 |
| 20260506042610 | 25 | 223 | 1.6 | 1.6 | 0.00 | 0.00 | 0.00 | 92 | 1011.3 |
| 20260506042107 | 25 | 123 | 4.8 | 8.0 | 0.00 | 0.00 | 0.00 | 92 | 1011.3 |
| 20260506041606 | 25 | 144 | 8.0 | 12.9 | 0.00 | 0.00 | 0.00 | 92 | 1011.2 |
| 20260506041102 | 25 | 157 | 0.0 | 1.6 | 0.00 | 0.00 | 0.00 | 91 | 1011.2 |
| 20260506040600 | 25 | 131 | 4.8 | 8.0 | 0.00 | 0.00 | 0.00 | 91 | 1011.1 |
| 20260506040056 | 25 | 189 | 6.4 | 9.7 | 0.00 | 0.00 | 0.00 | 91 | 1011.0 |
| 20260506035553 | 25 | 156 | 6.4 | 9.7 | 0.00 | 0.00 | 0.00 | 91 | 1011.0 |
| 20260506035050 | 25 | 219 | 4.8 | 4.8 | 0.00 | 0.00 | 0.00 | 91 | 1011.2 |
| 20260506034547 | 25 | 207 | 1.6 | 3.2 | 0.00 | 0.00 | 0.00 | 91 | 1010.9 |
| 20260506034044 | 25 | 176 | 4.8 | 4.8 | 0.00 | 0.00 | 0.00 | 90 | 1010.6 |
| 20260506033541 | 25 | 187 | 3.2 | 4.8 | 0.00 | 0.00 | 0.00 | 90 | 1010.8 |
| 20260506033038 | 25 | 175 | 4.8 | 4.8 | 0.00 | 0.00 | 0.00 | 90 | 1010.9 |
| 20260506032536 | 25 | 212 | 1.6 | 1.6 | 0.00 | 0.00 | 0.00 | 89 | 1010.8 |
| 20260506032032 | 25 | 137 | 1.6 | 3.2 | 0.00 | 0.00 | 0.00 | 88 | 1010.7 |
| 20260506031530 | 25 | 210 | 1.6 | 3.2 | 0.00 | 0.00 | 0.00 | 88 | 1010.3 |
| 20260506031027 | 25 | 136 | 1.6 | 1.6 | 0.00 | 0.00 | 0.00 | 88 | 1010.6 |
| 20260506030525 | 25 | 218 | 0.0 | 0.0 | 0.00 | 0.00 | 0.00 | 87 | 1010.4 |
| 20260506030022 | 25 | 195 | 1.6 | 3.2 | 0.00 | 0.00 | 0.00 | 87 | 1010.4 |
| 20260506025519 | 25 | 196 | 1.6 | 1.6 | 0.00 | 0.00 | 0.00 | 87 | 1010.4 |
| 20260506025015 | 25 | 205 | 1.6 | 3.2 | 0.00 | 0.00 | 0.00 | 87 | 1010.2 |
| 20260506024512 | 25 | 203 | 3.2 | 3.2 | 0.00 | 0.00 | 0.00 | 87 | 1010.1 |
| 20260506024008 | 25 | 196 | 0.0 | 0.0 | 0.00 | 0.00 | 0.00 | 86 | 1010.0 |
| 20260506023504 | 25 | 212 | 3.2 | 3.2 | 0.00 | 0.00 | 0.00 | 86 | 1010.2 |
| 20260506023002 | 25 | 168 | 3.2 | 3.2 | 0.00 | 0.00 | 0.00 | 86 | 1010.0 |
| 20260506022459 | 25 | 224 | 0.0 | 0.0 | 0.00 | 0.00 | 0.00 | 86 | 1009.9 |
| 20260506021957 | 26 | 205 | 3.2 | 3.2 | 0.00 | 0.00 | 0.00 | 85 | 1009.6 |
| 20260506021454 | 26 | 208 | 1.6 | 1.6 | 0.00 | 0.00 | 0.00 | 85 | 1009.6 |
| 20260506020951 | 26 | 212 | 1.6 | 1.6 | 0.00 | 0.00 | 0.00 | 85 | 1009.7 |
| 20260506020449 | 26 | 170 | 8.0 | 11.3 | 0.00 | 0.00 | 0.00 | 84 | 1009.4 |
| 20260506015946 | 26 | 219 | 1.6 | 3.2 | 0.00 | 0.00 | 0.00 | 84 | 1009.4 |
| 20260506015443 | 26 | 203 | 3.2 | 4.8 | 0.00 | 0.00 | 0.00 | 83 | 1009.2 |
| 20260506014940 | 26 | 207 | 3.2 | 3.2 | 0.00 | 0.00 | 0.00 | 83 | 1009.1 |
| 20260506014437 | 26 | 158 | 4.8 | 4.8 | 0.00 | 0.00 | 0.00 | 83 | 1009.2 |
| 20260506013933 | 26 | 187 | 1.6 | 3.2 | 0.00 | 0.00 | 0.00 | 82 | 1009.0 |
| 20260506013432 | 26 | 218 | 1.6 | 3.2 | 0.00 | 0.00 | 0.00 | 82 | 1008.8 |
| 20260506012927 | 26 | 192 | 3.2 | 3.2 | 0.00 | 0.00 | 0.00 | 82 | 1009.2 |
| 20260506012424 | 26 | 195 | 1.6 | 3.2 | 0.00 | 0.00 | 0.00 | 82 | 1009.1 |
| 20260506011921 | 27 | 163 | 1.6 | 3.2 | 0.00 | 0.00 | 0.00 | 81 | 1009.2 |
| 20260506011418 | 27 | 189 | 4.8 | 8.0 | 0.00 | 0.00 | 0.00 | 80 | 1009.0 |
| 20260506010915 | 27 | 205 | 1.6 | 3.2 | 0.00 | 0.00 | 0.00 | 80 | 1009.1 |
| 20260506010414 | 27 | 228 | 3.2 | 3.2 | 0.00 | 0.00 | 0.00 | 79 | 1009.1 |
| 20260506005910 | 27 | 209 | 1.6 | 3.2 | 0.00 | 0.00 | 0.00 | 79 | 1009.1 |
| 20260506005408 | 27 | 211 | 3.2 | 3.2 | 0.00 | 0.00 | 0.00 | 79 | 1009.1 |
| 20260506004902 | 27 | 205 | 4.8 | 8.0 | 0.00 | 0.00 | 0.00 | 78 | 1009.2 |
| 20260506004401 | 27 | 176 | 3.2 | 3.2 | 0.00 | 0.00 | 0.00 | 78 | 1009.4 |
| 20260506003857 | 27 | 179 | 3.2 | 4.8 | 0.00 | 0.00 | 0.00 | 78 | 1009.2 |
| 20260506003353 | 27 | 181 | 3.2 | 3.2 | 0.00 | 0.00 | 0.00 | 78 | 1009.0 |
| 20260506002849 | 27 | 160 | 4.8 | 8.0 | 0.00 | 0.00 | 0.00 | 77 | 1009.2 |
| 20260506002346 | 28 | 212 | 0.0 | 1.6 | 0.00 | 0.00 | 0.00 | 77 | 1009.1 |
| 20260506001841 | 28 | 212 | 1.6 | 1.6 | 0.00 | 0.00 | 0.00 | 76 | 1009.1 |
| 20260506001339 | 28 | 220 | 3.2 | 4.8 | 0.00 | 0.00 | 0.00 | 76 | 1009.3 |
| 20260506000836 | 28 | 179 | 1.6 | 1.6 | 0.00 | 0.00 | 0.00 | 76 | 1009.3 |
| 20260506000333 | 28 | 214 | 3.2 | 4.8 | 0.00 | 0.00 | 0.00 | 75 | 1009.1 |
| 20260505235830 | 28 | 223 | 1.6 | 3.2 | 0.00 | 0.00 | 0.00 | 75 | 1009.2 |
| 20260505235327 | 28 | 175 | 3.2 | 3.2 | 0.00 | 0.00 | 0.00 | 74 | 1009.3 |
| 20260505234824 | 28 | 188 | 3.2 | 3.2 | 0.00 | 0.00 | 0.00 | 75 | 1009.0 |
| 20260505234322 | 28 | 148 | 3.2 | 9.7 | 0.00 | 0.00 | 0.00 | 75 | 1009.0 |
| 20260505233819 | 28 | 206 | 0.0 | 0.0 | 0.00 | 0.00 | 0.00 | 75 | 1008.8 |
| 20260505233317 | 28 | 227 | 4.8 | 4.8 | 0.00 | 0.00 | 0.00 | 74 | 1008.8 |
| 20260505232814 | 28 | 154 | 3.2 | 4.8 | 0.00 | 0.00 | 0.00 | 74 | 1008.7 |
| 20260505232311 | 28 | 192 | 6.4 | 8.0 | 0.00 | 0.00 | 0.00 | 75 | 1008.9 |
| 20260505231808 | 28 | 197 | 6.4 | 9.7 | 0.00 | 0.00 | 0.00 | 73 | 1008.8 |
| 20260505231306 | 28 | 201 | 8.0 | 12.9 | 0.00 | 0.00 | 0.00 | 73 | 1008.8 |
| 20260505230804 | 28 | 174 | 3.2 | 3.2 | 0.00 | 0.00 | 0.00 | 72 | 1009.0 |
| 20260505230301 | 28 | 133 | 9.7 | 11.3 | 0.00 | 0.00 | 0.00 | 72 | 1008.9 |
| 20260505225757 | 28 | 165 | 4.8 | 8.0 | 0.00 | 0.00 | 0.00 | 73 | 1008.8 |
| 20260505225254 | 28 | 214 | 3.2 | 8.0 | 0.00 | 0.00 | 0.00 | 72 | 1008.7 |
| 20260505224749 | 28 | 215 | 8.0 | 9.7 | 0.00 | 0.00 | 0.00 | 72 | 1008.8 |
| 20260505224247 | 28 | 179 | 8.0 | 11.3 | 0.00 | 0.00 | 0.00 | 72 | 1008.7 |
| 20260505223745 | 28 | 196 | 4.8 | 4.8 | 0.00 | 0.00 | 0.00 | 72 | 1008.7 |
| 20260505223241 | 29 | 208 | 6.4 | 8.0 | 0.00 | 0.00 | 0.00 | 71 | 1008.6 |
| 20260505222737 | 29 | 208 | 4.8 | 8.0 | 0.00 | 0.00 | 0.00 | 72 | 1008.6 |
| 20260505222233 | 29 | 161 | 3.2 | 4.8 | 0.00 | 0.00 | 0.00 | 72 | 1008.6 |
| 20260505221731 | 29 | 185 | 8.0 | 11.3 | 0.00 | 0.00 | 0.00 | 71 | 1008.7 |
| 20260505221227 | 28 | 202 | 3.2 | 3.2 | 0.00 | 0.00 | 0.00 | 72 | 1008.7 |
| 20260505220724 | 29 | 155 | 6.4 | 8.0 | 0.00 | 0.00 | 0.00 | 72 | 1008.7 |
| 20260505220222 | 30 | 145 | 8.0 | 11.3 | 0.00 | 0.00 | 0.00 | 71 | 1008.9 |
| 20260505215720 | 29 | 206 | 1.6 | 3.2 | 0.00 | 0.00 | 0.00 | 71 | 1008.7 |
| 20260505215217 | 30 | 198 | 12.9 | 17.7 | 0.00 | 0.00 | 0.00 | 70 | 1008.8 |
| 20260505214715 | 30 | 173 | 4.8 | 8.0 | 0.00 | 0.00 | 0.00 | 70 | 1008.7 |
| 20260505214212 | 30 | 164 | 9.7 | 11.3 | 0.00 | 0.00 | 0.00 | 70 | 1009.0 |
| 20260505213709 | 30 | 145 | 4.8 | 8.0 | 0.00 | 0.00 | 0.00 | 70 | 1009.0 |
| 20260505213206 | 30 | 183 | 6.4 | 9.7 | 0.00 | 0.00 | 0.00 | 70 | 1009.0 |
| 20260505212702 | 30 | 203 | 8.0 | 9.7 | 0.00 | 0.00 | 0.00 | 70 | 1009.0 |
| 20260505212200 | 30 | 134 | 11.3 | 14.5 | 0.00 | 0.00 | 0.00 | 71 | 1009.0 |
| 20260505211656 | 30 | 173 | 6.4 | 8.0 | 0.00 | 0.00 | 0.00 | 71 | 1009.5 |
| 20260505211154 | 30 | 174 | 8.0 | 9.7 | 0.00 | 0.00 | 0.00 | 68 | 1009.1 |
| 20260505210650 | 30 | 145 | 6.4 | 11.3 | 0.00 | 0.00 | 0.00 | 67 | 1009.0 |
| 20260505210147 | 30 | 195 | 4.8 | 4.8 | 0.00 | 0.00 | 0.00 | 69 | 1009.1 |
| 20260505205644 | 30 | 184 | 3.2 | 3.2 | 0.00 | 0.00 | 0.00 | 68 | 1009.2 |
| 20260505205143 | 30 | 217 | 0.0 | 1.6 | 0.00 | 0.00 | 0.00 | 69 | 1009.1 |
| 20260505204639 | 30 | 219 | 4.8 | 8.0 | 0.00 | 0.00 | 0.00 | 68 | 1009.5 |
| 20260505204137 | 30 | 201 | 8.0 | 11.3 | 0.00 | 0.00 | 0.00 | 67 | 1009.3 |
| 20260505203634 | 30 | 209 | 8.0 | 11.3 | 0.00 | 0.00 | 0.00 | 68 | 1009.5 |
| 20260505203131 | 30 | 204 | 1.6 | 1.6 | 0.00 | 0.00 | 0.00 | 68 | 1009.5 |
| 20260505202626 | 30 | 227 | 1.6 | 1.6 | 0.00 | 0.00 | 0.00 | 70 | 1010.1 |
| 20260505202122 | 30 | 157 | 9.7 | 11.3 | 0.00 | 0.00 | 0.00 | 69 | 1009.7 |
| 20260505201619 | 30 | 146 | 8.0 | 9.7 | 0.00 | 0.00 | 0.00 | 69 | 1010.0 |
| 20260505201117 | 30 | 224 | 6.4 | 8.0 | 0.00 | 0.00 | 0.00 | 69 | 1010.2 |
| 20260505200615 | 30 | 209 | 8.0 | 11.3 | 0.00 | 0.00 | 0.00 | 70 | 1010.0 |
| 20260505200111 | 30 | 194 | 4.8 | 8.0 | 0.00 | 0.00 | 0.00 | 68 | 1010.1 |
| 20260505195608 | 29 | 189 | 4.8 | 4.8 | 0.00 | 0.00 | 0.00 | 70 | 1010.2 |
| 20260505195106 | 29 | 188 | 1.6 | 4.8 | 0.00 | 0.00 | 0.00 | 70 | 1010.2 |
| 20260505194602 | 30 | 183 | 1.6 | 3.2 | 0.00 | 0.00 | 0.00 | 70 | 1010.3 |
| 20260505194058 | 30 | 188 | 4.8 | 4.8 | 0.00 | 0.00 | 0.00 | 70 | 1010.6 |
| 20260505193555 | 30 | 167 | 3.2 | 3.2 | 0.00 | 0.00 | 0.00 | 70 | 1010.5 |
| 20260505193052 | 30 | 162 | 4.8 | 4.8 | 0.00 | 0.00 | 0.00 | 70 | 1010.4 |
| 20260505192551 | 29 | 171 | 3.2 | 9.7 | 0.00 | 0.00 | 0.00 | 71 | 1010.6 |
| 20260505192048 | 28 | 168 | 6.4 | 9.7 | 0.00 | 0.00 | 0.00 | 74 | 1010.5 |
| 20260505191546 | 28 | 195 | 4.8 | 8.0 | 0.00 | 0.00 | 0.00 | 72 | 1010.8 |
| 20260505191044 | 28 | 135 | 8.0 | 9.7 | 0.00 | 0.00 | 0.00 | 71 | 1010.7 |
| 20260505190538 | 29 | 173 | 3.2 | 3.2 | 0.00 | 0.00 | 0.00 | 71 | 1010.8 |
| 20260505190034 | 30 | 212 | 3.2 | 3.2 | 0.00 | 0.00 | 0.00 | 72 | 1010.8 |
| 20260505185531 | 29 | 286 | 1.6 | 3.2 | 0.00 | 0.00 | 0.00 | 71 | 1010.9 |
| 20260505185027 | 29 | 178 | 4.8 | 8.0 | 0.00 | 0.00 | 0.00 | 74 | 1010.9 |
| 20260505184524 | 28 | 160 | 0.0 | 0.0 | 0.00 | 0.00 | 0.00 | 73 | 1010.9 |
| 20260505184021 | 28 | 156 | 1.6 | 1.6 | 0.00 | 0.00 | 0.00 | 74 | 1011.1 |
| 20260505183518 | 28 | 160 | 3.2 | 4.8 | 0.00 | 0.00 | 0.00 | 76 | 1011.2 |
| 20260505183015 | 28 | 189 | 1.6 | 1.6 | 0.00 | 0.00 | 0.00 | 74 | 1011.2 |
| 20260505182512 | 27 | 236 | 6.4 | 9.7 | 0.00 | 0.00 | 0.00 | 75 | 1011.2 |
| 20260505182008 | 28 | 240 | 3.2 | 4.8 | 0.00 | 0.00 | 0.00 | 74 | 1011.4 |
| 20260505181505 | 27 | 175 | 8.0 | 9.7 | 0.00 | 0.00 | 0.00 | 76 | 1011.4 |
| 20260505181003 | 27 | 175 | 9.7 | 12.9 | 0.00 | 0.00 | 0.00 | 76 | 1011.7 |
| 20260505180458 | 27 | 192 | 6.4 | 8.0 | 0.00 | 0.00 | 0.00 | 76 | 1011.4 |
| 20260505175955 | 27 | 162 | 4.8 | 8.0 | 0.00 | 0.00 | 0.00 | 78 | 1011.5 |
| 20260505175451 | 26 | 187 | 1.6 | 1.6 | 0.00 | 0.00 | 0.00 | 80 | 1011.6 |
| 20260505174948 | 26 | 196 | 4.8 | 4.8 | 0.00 | 0.00 | 0.00 | 81 | 1011.9 |
| 20260505174445 | 26 | 173 | 3.2 | 11.3 | 0.00 | 0.00 | 0.00 | 82 | 1012.0 |
| 20260505173941 | 25 | 188 | 3.2 | 3.2 | 0.00 | 0.00 | 0.00 | 82 | 1011.9 |
| 20260505173438 | 26 | 183 | 6.4 | 9.7 | 0.00 | 0.00 | 0.00 | 81 | 1011.9 |
| 20260505172935 | 25 | 184 | 1.6 | 3.2 | 0.00 | 0.00 | 0.00 | 83 | 1012.0 |
| 20260505172433 | 25 | 181 | 8.0 | 8.0 | 0.00 | 0.00 | 0.00 | 83 | 1011.8 |
| 20260505171932 | 25 | 201 | 1.6 | 1.6 | 0.00 | 0.00 | 0.00 | 83 | 1011.9 |
| 20260505171430 | 25 | 195 | 4.8 | 8.0 | 0.00 | 0.00 | 0.00 | 83 | 1012.0 |
| 20260505170926 | 25 | 212 | 1.6 | 3.2 | 0.00 | 0.00 | 0.00 | 83 | 1012.0 |
| 20260505170423 | 25 | 184 | 3.2 | 3.2 | 0.00 | 0.00 | 0.00 | 84 | 1012.3 |
| 20260505165918 | 25 | 184 | 1.6 | 3.2 | 0.00 | 0.00 | 0.00 | 84 | 1012.2 |
| 20260505165414 | 24 | 199 | 0.0 | 0.0 | 0.00 | 0.00 | 0.00 | 85 | 1012.1 |
| 20260505164909 | 24 | 201 | 1.6 | 1.6 | 0.00 | 0.00 | 0.00 | 85 | 1012.1 |
| 20260505164407 | 24 | 201 | 3.2 | 4.8 | 0.00 | 0.00 | 0.00 | 86 | 1012.2 |
| 20260505163905 | 24 | 143 | 4.8 | 4.8 | 0.00 | 0.00 | 0.00 | 86 | 1012.3 |
| 20260505163404 | 23 | 199 | 1.6 | 1.6 | 0.00 | 0.00 | 0.00 | 87 | 1012.1 |
| 20260505162902 | 23 | 198 | 1.6 | 3.2 | 0.00 | 0.00 | 0.00 | 87 | 1012.1 |
| 20260505162357 | 23 | 209 | 0.0 | 1.6 | 0.00 | 0.00 | 0.00 | 87 | 1012.1 |
| 20260505161855 | 23 | 193 | 6.4 | 11.3 | 0.00 | 0.00 | 0.00 | 87 | 1012.0 |
| 20260505161351 | 23 | 186 | 3.2 | 3.2 | 0.00 | 0.00 | 0.00 | 87 | 1012.1 |
| 20260505160849 | 23 | 195 | 3.2 | 4.8 | 0.00 | 0.00 | 0.00 | 88 | 1012.0 |
| 20260505160347 | 23 | 169 | 0.0 | 0.0 | 0.00 | 0.00 | 0.00 | 89 | 1012.2 |
| 20260505153326 | 22 | 191 | 0.0 | 1.6 | 0.00 | 0.00 | 0.00 | 91 | 1012.2 |
| 20260505152823 | 22 | 191 | 1.6 | 3.2 | 0.00 | 0.00 | 0.00 | 91 | 1012.2 |
| 20260505152320 | 22 | 198 | 1.6 | 1.6 | 0.00 | 0.00 | 0.00 | 91 | 1012.3 |
| 20260505151819 | 22 | 173 | 1.6 | 3.2 | 0.00 | 0.00 | 0.00 | 91 | 1012.1 |
| 20260505151317 | 22 | 198 | 1.6 | 3.2 | 0.00 | 0.00 | 0.00 | 91 | 1012.0 |
| 20260505150813 | 22 | 187 | 3.2 | 4.8 | 0.00 | 0.00 | 0.00 | 91 | 1012.1 |
| 20260505150310 | 22 | 207 | 3.2 | 3.2 | 0.00 | 0.00 | 0.00 | 91 | 1011.9 |
| 20260505140235 | 22 | 205 | 1.6 | 3.2 | 0.00 | 0.00 | 0.00 | 92 | 1011.8 |
| 20260505130159 | 21 | 184 | 1.6 | 3.2 | 0.00 | 0.00 | 0.00 | 92 | 1011.2 |
| 20260505124649 | 21 | 199 | 0.0 | 0.0 | 0.00 | 0.00 | 0.00 | 92 | 1011.0 |
| 20260505124145 | 21 | 183 | 1.6 | 3.2 | 0.00 | 0.00 | 0.00 | 92 | 1011.0 |
| 20260505123641 | 21 | 212 | 1.6 | 1.6 | 0.00 | 0.00 | 0.00 | 92 | 1011.0 |
| 20260505123139 | 21 | 164 | 4.8 | 8.0 | 0.00 | 0.00 | 0.00 | 92 | 1010.8 |
| 20260505122635 | 21 | 144 | 1.6 | 3.2 | 0.00 | 0.00 | 0.00 | 92 | 1010.8 |
| 20260505122132 | 21 | 278 | 3.2 | 4.8 | 0.00 | 0.00 | 0.00 | 92 | 1010.7 |
| 20260505121628 | 21 | 201 | 3.2 | 3.2 | 0.00 | 0.00 | 0.00 | 92 | 1010.5 |
| 20260505121125 | 21 | 196 | 4.8 | 8.0 | 0.00 | 0.00 | 0.00 | 92 | 1010.6 |
| 20260505120622 | 21 | 198 | 4.8 | 4.8 | 0.00 | 0.00 | 0.00 | 92 | 1010.4 |
| 20260505120118 | 21 | 193 | 3.2 | 4.8 | 0.00 | 0.00 | 0.00 | 92 | 1010.3 |
| 20260505115612 | 21 | 208 | 0.0 | 0.0 | 0.00 | 0.00 | 0.00 | 92 | 1010.4 |
| 20260505115109 | 21 | 225 | 3.2 | 3.2 | 0.00 | 0.00 | 0.00 | 92 | 1010.3 |
| 20260505114606 | 21 | 190 | 4.8 | 8.0 | 0.00 | 0.00 | 0.00 | 92 | 1010.5 |
| 20260505114103 | 21 | 199 | 3.2 | 3.2 | 0.00 | 0.00 | 0.00 | 92 | 1010.4 |
| 20260505113559 | 21 | 217 | 1.6 | 1.6 | 0.00 | 0.00 | 0.00 | 93 | 1010.2 |
| 20260505113056 | 21 | 238 | 0.0 | 1.6 | 0.00 | 0.00 | 0.00 | 93 | 1010.5 |
| 20260505112552 | 21 | 176 | 3.2 | 3.2 | 0.00 | 0.00 | 0.00 | 93 | 1010.4 |
| 20260505112050 | 21 | 151 | 4.8 | 4.8 | 0.00 | 0.00 | 0.00 | 93 | 1010.4 |
| 20260505111544 | 21 | 170 | 8.0 | 9.7 | 0.00 | 0.00 | 0.00 | 93 | 1010.4 |
| 20260505111040 | 21 | 211 | 1.6 | 3.2 | 0.00 | 0.00 | 0.00 | 93 | 1010.6 |
| 20260505110537 | 21 | 205 | 3.2 | 4.8 | 0.00 | 0.00 | 0.00 | 93 | 1010.2 |
| 20260505102009 | 21 | 187 | 4.8 | 4.8 | 0.00 | 0.00 | 0.00 | 91 | 1010.8 |
| 20260505101508 | 21 | 202 | 0.0 | 1.6 | 0.00 | 0.00 | 0.00 | 91 | 1010.4 |
| 20260505101004 | 21 | 198 | 4.8 | 8.0 | 0.00 | 0.00 | 0.00 | 91 | 1010.5 |
| 20260505100501 | 21 | 187 | 3.2 | 3.2 | 0.00 | 0.00 | 0.00 | 91 | 1010.8 |
| 20260505095957 | 21 | 204 | 0.0 | 1.6 | 0.00 | 0.00 | 0.00 | 91 | 1010.6 |
| 20260505095454 | 21 | 198 | 3.2 | 3.2 | 0.00 | 0.00 | 0.00 | 91 | 1010.6 |
| 20260505094950 | 21 | 200 | 0.0 | 0.0 | 0.00 | 0.00 | 0.00 | 91 | 1010.7 |
| 20260505094447 | 21 | 211 | 3.2 | 3.2 | 0.00 | 0.00 | 0.00 | 91 | 1010.7 |
| 20260505093943 | 21 | 183 | 0.0 | 0.0 | 0.00 | 0.00 | 0.00 | 91 | 1010.9 |
| 20260505093440 | 21 | 181 | 4.8 | 4.8 | 0.00 | 0.00 | 0.00 | 91 | 1010.5 |
| 20260505092937 | 21 | 180 | 3.2 | 3.2 | 0.00 | 0.00 | 0.00 | 91 | 1010.8 |
| 20260505092435 | 21 | 207 | 6.4 | 8.0 | 0.00 | 0.00 | 0.00 | 91 | 1010.8 |
| 20260505091932 | 21 | 210 | 3.2 | 3.2 | 0.00 | 0.00 | 0.00 | 91 | 1010.9 |
| 20260505091430 | 21 | 178 | 1.6 | 1.6 | 0.00 | 0.00 | 0.00 | 91 | 1011.0 |
| 20260505090927 | 21 | 134 | 4.8 | 8.0 | 0.00 | 0.00 | 0.00 | 91 | 1010.8 |
| 20260505090425 | 21 | 208 | 1.6 | 3.2 | 0.00 | 0.00 | 0.00 | 91 | 1010.6 |
| 20260505085922 | 21 | 210 | 3.2 | 4.8 | 0.00 | 0.00 | 0.00 | 91 | 1011.0 |
| 20260505085420 | 21 | 203 | 6.4 | 8.0 | 0.00 | 0.00 | 0.00 | 91 | 1010.9 |
| 20260505084918 | 21 | 186 | 4.8 | 8.0 | 0.00 | 0.00 | 0.00 | 91 | 1010.9 |
| 20260505084416 | 21 | 208 | 3.2 | 3.2 | 0.00 | 0.00 | 0.00 | 91 | 1011.0 |
| 20260505083914 | 21 | 208 | 3.2 | 3.2 | 0.00 | 0.00 | 0.00 | 91 | 1011.2 |
| 20260505083411 | 21 | 174 | 3.2 | 3.2 | 0.00 | 0.00 | 0.00 | 91 | 1010.9 |
| 20260505082907 | 21 | 199 | 0.0 | 1.6 | 0.00 | 0.00 | 0.00 | 91 | 1010.9 |